#timestamp,LO_Frequency,Hit,StdDev 
1576569615.8,286047001.4,N
1576569635.7,286047005.9,Y
1576569655.5,286047004.0,P
1576569675.3,286047001.6,N
1576569695.2,286047001.9,N
1576569715.0,286047000.9,N
1576569715.9,286047000.9,N
1576569735.8,286047000.9,N
1576569755.6,286047002.7,N
1576569775.4,286046999.9,N
1576569795.3,286047002.4,N
1576569815.1,286047000.3,N
1576569835.8,286047000.4,N
1576569855.7,286046998.7,N
1576569875.5,286046998.7,N
1576569895.4,286046998.8,N
1576569915.2,286046996.6,N
1576569935.0,286046996.5,N
1576569935.9,286046996.5,N
1576569955.8,286046998.4,N
1576569975.6,286046998.5,N
1576569995.5,286046998.7,N
1576570015.3,286046998.7,N
1576570035.1,286046996.6,N
1576570055.9,286046998.4,N
1576570075.7,286047000.3,N
1576570095.5,286047001.6,N
1576570115.4,286047002.0,N
1576570135.2,286047002.4,N
1576570155.1,286047000.3,N
1576570156.0,286047000.3,N
1576570175.8,286047002.8,N
1576570195.6,286047001.9,N
1576570215.5,286047001.8,N
1576570235.3,286047001.6,N
1576570255.1,286047001.6,N
1576570275.9,286047001.3,N
1576570295.7,286047001.6,N
1576570315.6,286047001.3,N
1576570335.4,286047004.1,N
1576570355.2,286047001.9,N
1576570375.1,286047002.6,N
1576570376.0,286047002.6,N
1576570395.8,286046999.9,N
1576570415.7,286047000.1,N
1576570435.5,286047002.4,N
1576570455.3,286047002.7,N
1576570475.2,286047004.4,N
1576570495.0,286047003.8,N
1576570495.9,286047003.8,N
1576570515.8,286047004.2,N
1576570535.6,286047006.0,Y
1576570555.4,286047003.4,P
1576570575.3,286047003.3,P
1576570595.1,286047004.4,P
1576570615.8,286047005.3,Y
1576570635.7,286046999.7,P
1576570655.5,286047000.4,N
1576570675.4,286047000.7,N
1576570695.2,286047000.7,N
1576570715.0,286047000.8,N
1576570715.9,286047000.8,N
1576570735.8,286047000.0,N
1576570755.6,286046998.2,N
1576570775.4,286047000.6,N
1576570795.3,286047001.2,N
1576570815.1,286047000.7,N
1576570835.9,286047000.7,N
1576570855.7,286047000.2,N
1576570875.5,286047001.7,N
1576570895.4,286047001.3,N
1576570915.2,286047002.6,N
1576570935.0,286047002.2,N
1576570935.9,286047002.2,N
1576570955.8,286047001.9,N
1576570975.6,286047001.9,N
1576570995.5,286047001.5,N
1576571015.3,286047002.1,N
1576571035.1,286047002.5,N
1576571055.9,286047004.0,Y
1576571075.7,286047000.3,P
1576571095.5,286046999.9,N
1576571115.4,286047000.8,N
1576571135.2,286046998.5,Y
1576571155.1,286046999.3,P
1576571156.0,286046999.3,N
1576571175.8,286046997.5,P
1576571195.6,286046998.0,N
1576571215.5,286046996.8,Y
1576571235.3,286046999.5,P
1576571255.2,286046996.9,P
1576571275.9,286047001.2,N
1576571295.7,286047001.2,N
1576571315.6,286046999.3,N
1576571335.4,286046998.6,N
1576571355.2,286046998.5,N
1576571375.1,286046997.5,N
1576571376.0,286046997.5,N
1576571395.8,286046997.2,N
1576571415.7,286046999.3,N
1576571435.5,286047000.4,N
1576571455.3,286047000.3,N
1576571475.2,286047002.2,N
1576571495.0,286047002.5,N
1576571495.9,286047002.5,N
1576571515.7,286047000.4,N
1576571535.6,286047000.0,N
1576571555.4,286047000.4,N
1576571575.3,286047000.4,N
1576571595.1,286047000.0,N
1576571596.0,286047000.0,N
1576571615.8,286047000.2,N
1576571635.7,286047000.1,N
1576571655.5,286047000.4,N
1576571675.3,286047000.1,N
1576571695.2,286047000.3,N
1576571715.0,286046999.7,N
1576571715.9,286046999.7,N
1576571735.8,286046999.7,N
1576571755.6,286047000.0,N
1576571775.4,286047002.2,N
1576571795.3,286046999.7,N
1576571815.1,286047000.2,N
1576571835.9,286046999.9,N
1576571855.7,286046998.2,N
1576571875.5,286046999.0,N
1576571895.4,286047000.2,N
1576571915.2,286047000.1,N
1576571935.0,286047000.4,N
1576571935.9,286047000.4,N
1576571955.8,286046998.2,N
1576571975.6,286046998.7,N
1576571995.5,286047001.1,N
1576572015.3,286047000.4,N
1576572035.1,286046999.9,N
1576572055.9,286046998.5,N
1576572075.7,286046998.9,N
1576572095.5,286046998.2,N
1576572115.4,286047000.8,N
1576572135.2,286047000.3,N
1576572155.1,286047000.2,N
1576572156.0,286047000.2,N
1576572175.8,286047002.7,Y
1576572195.6,286047002.2,P
1576572215.5,286046999.8,N
1576572235.3,286047002.4,N
1576572255.1,286046999.7,N
1576572275.9,286047002.4,N
1576572295.7,286047004.1,Y
1576572315.6,286047002.4,P
1576572335.4,286047002.6,P
1576572355.2,286047002.2,P
1576572375.1,286047001.6,N
1576572376.0,286047001.6,N
1576572395.8,286047002.7,Y
1576572415.7,286046999.9,P
1576572435.5,286047000.2,N
1576572455.3,286047000.9,N
1576572475.2,286047000.4,N
1576572495.0,286047002.7,Y
1576572495.9,286047002.7,P
1576572515.7,286047000.6,N
1576572535.6,286047000.7,N
1576572555.4,286046999.7,N
1576572575.3,286046999.3,N
1576572595.1,286046996.9,N
1576572596.0,286046996.9,N
1576572615.8,286046998.9,N
1576572635.7,286046999.3,N
1576572655.5,286046996.5,N
1576572675.3,286046997.1,N
1576572695.2,286046999.2,N
1576572715.0,286046999.5,N
1576572715.9,286046999.5,N
1576572735.8,286046998.3,N
1576572755.6,286046998.8,N
1576572775.4,286047001.0,N
1576572795.3,286047000.9,N
1576572815.1,286047001.2,N
1576572835.9,286047001.0,N
1576572855.7,286046998.5,N
1576572875.5,286046998.8,N
1576572895.4,286046999.5,N
1576572915.2,286046999.1,N
1576572935.0,286046998.6,N
1576572935.9,286046998.6,N
1576572955.8,286046999.7,N
1576572975.6,286047000.1,N
1576572995.4,286047001.1,N
1576573015.3,286046999.1,N
1576573035.1,286046999.1,N
1576573055.9,286046998.4,N
1576573075.7,286047000.7,N
1576573095.5,286047000.6,N
1576573115.4,286047001.2,N
1576573135.2,286047001.0,N
1576573155.0,286047000.4,N
1576573156.0,286047000.4,N
1576573175.8,286046999.4,N
1576573195.6,286046999.0,N
